Lid_Strength_Index
14 14 14 14 15 14 15 14 15 14 13 11 9 8 7 6 6 6 5 5 5 5 5 6 6 6 6 7 7 8 8 9 9 9 9 9 10 10 11 12 12 12 12 12
17 14 14 15 14 14 13 12 12 12 12 8 7 6 6 6 6 6 6 5 4 4 4 5 5 6 6 7 7 7 8 9 9 9 9 10 10 11 11 11 11 12 12 13
19 14 14 19 14 13 12 11 11 14 11 8 8 8 7 7 6 6 5 5 5 5 4 4 4 5 6 6 6 7 7 8 8 9 10 10 10 11 11 12 11 12 13 14
18 15 21 14 10 10 11 10 10 9 8 7 7 6 6 6 6 6 5 5 5 4 4 3 3 4 6 6 6 6 7 8 9 9 10 10 10 11 11 12 12 12 13 14
18 17 14 13 10 10 11 12 8 9 8 7 7 6 7 5 5 5 5 5 4 4 4 5 4 4 6 6 6 6 8 8 9 9 10 10 11 11 11 11 12 12 13 14
14 18 20 13 9 7 8 14 8 8 8 8 8 12 10 6 5 5 4 4 4 4 3 4 4 4 6 7 7 7 8 8 8 9 10 10 11 11 11 11 11 11 13 14
15 17 14 9 8 7 15 14 8 7 8 8 10 8 6 5 5 4 4 4 4 4 4 4 3 4 6 7 7 7 7 8 9 9 9 9 10 11 11 12 12 11 13 14
14 19 20 7 8 12 9 7 7 7 7 7 6 6 6 5 5 5 5 5 4 4 5 4 4 6 7 6 6 7 7 8 9 9 9 9 10 10 11 11 12 12 14 15
13 14 8 7 7 6 6 7 7 6 6 6 6 6 5 8 6 5 5 5 4 4 5 5 5 6 7 7 7 7 7 8 9 9 9 9 10 11 11 12 13 13 14 15
11 9 8 7 6 5 5 6 5 5 5 5 6 5 5 5 5 5 5 4 4 4 5 6 6 7 7 7 7 7 8 9 9 9 10 10 10 10 11 12 13 13 14 15
10 9 7 7 6 6 5 5 5 4 5 5 5 5 5 5 5 5 5 4 4 5 6 7 7 8 7 7 7 8 9 9 10 10 10 11 10 11 12 12 12 13 13 13
12 8 7 7 6 4 5 5 5 5 6 4 4 5 4 6 5 5 5 4 4 5 6 7 8 7 7 7 8 9 10 10 10 10 11 11 12 12 10 11 10 11 11 12
8 6 6 5 5 4 5 5 5 5 5 5 4 5 4 5 4 4 4 4 5 6 7 7 8 8 8 7 7 9 10 10 10 11 11 13 13 13 13 11 10 10 10 10
5 5 7 6 7 5 4 4 4 4 4 5 5 4 4 5 5 6 7 7 6 8 9 9 9 8 8 7 7 8 9 10 11 11 12 13 13 13 13 14 15 15 10 10
5 5 6 5 5 5 5 5 6 6 5 5 4 5 5 5 6 6 7 7 7 7 7 8 8 8 7 7 7 8 9 10 11 11 12 13 13 14 14 15 16 16 14 13
6 6 6 7 7 6 6 6 7 7 5 4 5 5 5 4 4 4 5 6 6 7 7 7 8 7 7 7 7 8 9 10 10 11 11 12 12 13 14 14 15 15 16 16
8 9 9 9 8 8 7 6 6 6 5 4 6 6 6 6 7 6 7 7 7 7 6 7 7 7 7 7 7 8 9 9 10 10 11 12 12 13 14 15 15 15 16 17
6 7 6 7 8 9 8 6 6 6 7 6 6 6 8 9 9 6 6 6 6 7 7 7 7 7 7 7 7 8 9 10 10 11 11 12 12 12 13 14 14 14 15 15
6 8 9 9 9 8 8 8 8 8 9 9 8 8 8 7 7 7 6 7 7 8 8 8 8 7 8 8 9 9 10 10 11 11 11 12 14 14 14 14 14 14 12 13
9 8 8 8 8 8 9 9 9 9 8 9 8 8 9 8 7 7 8 8 8 8 7 8 8 8 9 9 9 10 10 11 11 11 12 13 14 15 14 13 11 11 11 11
9 9 9 9 9 9 10 9 9 10 9 9 9 8 8 8 8 8 9 10 10 9 9 9 9 9 9 9 9 10 11 11 12 12 12 12 12 12 13 11 12 12 13 13
9 10 10 10 10 10 10 9 10 10 10 9 8 8 8 9 9 9 9 11 10 11 10 10 9 9 9 9 9 10 11 11 12 11 10 10 10 12 12 11 13 13 12 12
10 10 10 11 10 10 9 10 10 10 9 8 9 8 9 10 10 12 13 11 11 11 10 10 10 10 10 10 9 10 11 11 9 9 11 12 11 10 12 12 12 13 13 13
10 10 11 10 10 10 10 13 11 10 10 10 9 9 10 10 10 10 11 11 11 10 10 10 9 9 10 9 9 10 11 12 12 10 10 11 13 12 11 12 12 13 13 12
10 10 10 11 11 12 11 10 12 13 13 11 11 10 10 10 10 11 11 11 11 11 11 11 10 10 10 11 11 12 13 13 13 12 12 11 12 12 13 12 13 12 13 13
10 10 10 10 11 11 11 10 12 13 13 13 12 11 11 11 11 11 11 11 12 12 12 12 12 12 12 12 13 13 13 13 12 11 12 12 12 13 12 12 12 12 13 13
10 10 10 11 12 11 11 11 11 12 12 13 13 12 12 12 11 11 11 11 12 12 12 14 14 12 12 13 13 11 10 11 12 14 15 15 15 14 13 12 14 14 13 14